FW3861 Weather Reports


time (UTC)temp
C
wind
direction
speed
KPH
gust
KPH
rain 1hr
cm
rain 24hr
cm
rain mn
cm
humidity
%
barometer
mb
20260504212703 14 189 8.0 16.1 0.00 0.00 0.00 79 1011.7
20260504212019 14 190 8.0 17.7 0.00 0.00 0.00 78 1011.6
20260504210903 14 185 8.0 14.5 0.00 0.00 0.00 76 1011.6
20260504210003 15 179 6.4 14.5 0.00 0.00 0.00 76 1011.7
20260504205403 15 178 8.0 16.1 0.00 0.00 0.00 75 1011.5
20260504204503 15 182 8.0 16.1 0.00 0.00 0.00 73 1011.5
20260504203603 15 176 8.0 16.1 0.00 0.00 0.00 72 1011.6
20260504202703 15 174 8.0 14.5 0.00 0.00 0.00 72 1011.5
20260504202020 15 184 6.4 16.1 0.00 0.00 0.00 73 1011.8
20260504200903 15 186 8.0 17.7 0.00 0.00 0.00 72 1011.6
20260504200220 15 190 9.7 17.7 0.00 0.00 0.00 73 1011.7
20260504195403 15 183 8.0 14.5 0.00 0.00 0.00 74 1011.7
20260504194503 15 181 8.0 17.7 0.00 0.00 0.00 75 1011.8
20260504193603 15 184 8.0 16.1 0.00 0.00 0.00 73 1011.9
20260504192703 15 183 8.0 16.1 0.00 0.00 0.00 73 1012.2
20260504191803 15 184 8.0 16.1 0.00 0.00 0.00 74 1012.1
20260504190903 15 187 8.0 16.1 0.00 0.00 0.00 72 1012.2
20260504190003 15 185 8.0 14.5 0.00 0.00 0.00 72 1012.5
20260504185403 15 181 8.0 14.5 0.00 0.00 0.00 72 1012.7
20260504184503 16 175 6.4 14.5 0.00 0.00 0.00 71 1012.7
20260504183603 15 185 6.4 16.1 0.00 0.00 0.00 71 1012.6
20260504182703 15 176 6.4 12.9 0.00 0.00 0.00 71 1012.7
20260504181803 15 181 6.4 14.5 0.00 0.00 0.00 72 1012.9
20260504180903 15 169 6.4 14.5 0.00 0.00 0.00 72 1012.9
20260504180221 15 172 6.4 16.1 0.00 0.00 0.00 72 1013.1
20260504175403 15 171 4.8 16.1 0.00 0.00 0.00 71 1013.1
20260504174503 15 173 4.8 11.3 0.00 0.00 0.00 70 1013.3
20260504173818 15 175 4.8 11.3 0.00 0.00 0.00 71 1013.1
20260504172919 15 174 6.4 11.3 0.00 0.00 0.00 72 1013.2
20260504171803 15 174 4.8 11.3 0.00 0.00 0.00 72 1013.4
20260504170903 15 191 6.4 14.5 0.00 0.00 0.00 72 1013.3
20260504150903 15 183 4.8 11.3 0.00 0.00 0.00 64 1014.7
20260504141121 15 202 4.8 11.3 0.00 0.00 0.00 59 1014.7
20260504130219 13 200 4.8 14.5 0.00 0.00 0.00 64 1015.5
20260504081803 10 225 3.2 9.7 0.00 0.00 0.00 62 1014.8
20260504081120 10 214 3.2 9.7 0.00 0.00 0.00 60 1014.8
20260504050003 11 187 3.2 11.3 0.00 0.00 0.00 56 1014.3
20260504045403 11 198 3.2 6.4 0.00 0.00 0.00 56 1014.3
20260504044503 11 199 3.2 6.4 0.00 0.00 0.00 57 1014.2
20260504043603 11 192 1.6 11.3 0.00 0.00 0.00 63 1014.1
20260504042703 11 195 3.2 6.4 0.00 0.00 0.00 64 1014.0
20260504041803 11 189 1.6 4.8 0.00 0.00 0.00 65 1014.0
20260504040903 11 185 1.6 4.8 0.00 0.00 0.00 66 1014.1
20260504040003 11 189 1.6 4.8 0.00 0.00 0.00 58 1014.0
20260504035403 11 194 3.2 6.4 0.00 0.00 0.00 58 1014.0
20260504034503 11 211 3.2 6.4 0.00 0.00 0.00 58 1013.9
20260504033821 11 200 3.2 4.8 0.00 0.00 0.00 59 1013.9
20260504032703 11 210 3.2 6.4 0.00 0.00 0.00 59 1014.0
20260504031803 11 193 3.2 6.4 0.00 0.00 0.00 57 1013.6
20260504030903 11 193 3.2 6.4 0.00 0.00 0.00 61 1013.5
20260504030004 11 203 3.2 6.4 0.00 0.00 0.00 65 1013.8
20260504025403 11 199 3.2 6.4 0.00 0.00 0.00 68 1013.7
20260504024503 11 177 1.6 6.4 0.00 0.00 0.00 65 1013.9
20260504023603 12 179 1.6 3.2 0.00 0.00 0.00 51 1013.8
20260504022703 11 193 1.6 3.2 0.00 0.00 0.00 52 1013.7
20260504021803 12 206 1.6 4.8 0.00 0.00 0.00 52 1013.9
20260504020903 11 193 3.2 4.8 0.00 0.00 0.00 59 1013.7
20260504020221 11 195 3.2 6.4 0.00 0.00 0.00 64 1013.8
20260504015403 11 190 1.6 4.8 0.00 0.00 0.00 69 1013.6
20260504014503 11 187 3.2 6.4 0.00 0.00 0.00 73 1013.7
20260504013603 12 173 1.6 3.2 0.00 0.00 0.00 63 1013.6
20260504012703 12 167 1.6 1.6 0.00 0.00 0.00 44 1013.5
20260504011803 12 171 1.6 3.2 0.00 0.00 0.00 42 1013.4
20260504010903 12 167 1.6 3.2 0.00 0.00 0.00 42 1013.2
20260504010003 12 168 1.6 3.2 0.00 0.00 0.00 41 1013.0
20260504005403 12 162 0.0 1.6 0.00 0.00 0.00 40 1013.0
20260504004503 13 168 1.6 3.2 0.00 0.00 0.00 39 1013.1
20260504003603 13 149 0.0 3.2 0.00 0.00 0.00 34 1012.7
20260504002703 13 192 1.6 3.2 0.00 0.00 0.00 31 1012.6
20260504001803 13 228 1.6 6.4 0.00 0.00 0.00 31 1012.4
20260504000903 13 224 1.6 9.7 0.00 0.00 0.00 31 1012.3
20260504000004 14 302 3.2 11.3 0.00 0.00 0.00 30 1012.3
20260503235403 14 289 3.2 11.3 0.00 0.00 0.00 30 1012.2
20260503234503 14 275 3.2 12.9 0.00 0.00 0.00 29 1011.9
20260503233603 14 281 4.8 12.9 0.00 0.00 0.00 29 1011.9
20260503232703 15 283 6.4 16.1 0.00 0.00 0.00 28 1012.0
20260503232018 15 298 8.0 20.9 0.00 0.00 0.00 26 1011.9
20260503230903 15 289 8.0 25.7 0.00 0.00 0.00 27 1011.8
20260503230003 15 288 6.4 22.5 0.00 0.00 0.00 26 1011.7
20260503225403 15 298 6.4 17.7 0.00 0.00 0.00 26 1011.5
20260503224503 15 289 9.7 22.5 0.00 0.00 0.00 26 1011.6
20260503223603 15 277 8.0 22.5 0.00 0.00 0.00 25 1011.8
20260503222703 15 285 8.0 22.5 0.00 0.00 0.00 25 1011.5
20260503221803 15 289 8.0 22.5 0.00 0.00 0.00 26 1011.5
20260503220903 16 280 6.4 17.7 0.00 0.00 0.00 26 1011.8
20260503220003 15 282 11.3 24.1 0.00 0.00 0.00 26 1011.6
20260503215620 15 281 9.7 24.1 0.00 0.00 0.00 26 1011.5
20260503214503 15 296 11.3 25.7 0.00 0.00 0.00 27 1011.6
20260503213603 15 304 9.7 22.5 0.00 0.00 0.00 27 1011.5